Theta_e
304 311 329 334 341 346 347 347 347 347 346 346 346 347 348 348 350 352 352 352 352 352 351 350 349 348 349 347 347 346 347 346 346 346 344 342 340 340 341 341 344 340 346
305 313 327 329 331 337 342 344 346 347 346 346 346 345 345 347 349 349 351 350 351 350 350 350 348 346 347 347 348 347 347 346 344 344 343 342 342 341 341 342 343 340 346
306 314 317 327 327 328 332 336 339 344 345 345 346 347 346 346 347 349 349 350 348 350 349 349 347 346 345 346 346 347 345 345 343 341 340 332 334 341 342 342 343 345 346
306 311 315 324 324 325 326 327 332 336 340 345 345 346 347 347 347 347 349 348 348 348 348 348 347 344 345 344 343 345 344 343 341 338 330 330 334 341 341 342 343 345 345
301 305 313 319 320 322 323 324 325 326 330 337 340 344 344 347 347 348 348 348 348 347 347 346 345 344 344 343 343 345 344 341 338 331 327 327 329 339 342 342 343 345 343
299 301 308 315 317 317 319 321 321 322 324 327 331 336 341 344 345 346 347 348 347 347 347 347 347 346 344 343 343 344 343 340 334 323 323 327 328 339 343 342 343 343 342
297 299 301 311 312 313 315 316 316 318 319 322 324 328 332 336 341 344 345 346 346 347 346 345 345 345 343 342 343 343 342 337 322 320 322 323 326 340 343 343 343 343 342
297 297 298 303 307 309 310 311 312 313 315 317 319 321 324 328 331 338 343 344 344 346 345 345 343 343 343 343 342 342 339 331 321 319 320 322 328 336 343 342 343 342 342
296 296 295 296 300 303 306 307 308 309 310 311 313 316 319 321 326 333 337 342 344 344 345 343 342 342 342 342 342 339 334 327 318 318 320 320 329 337 342 341 341 341 341
294 294 294 294 295 295 296 303 305 305 307 307 308 309 312 319 323 326 330 336 341 342 343 342 341 341 341 340 339 335 330 326 318 318 319 320 330 336 339 340 341 340 339
294 293 293 293 293 294 295 297 300 302 303 304 304 305 307 311 315 321 321 324 337 339 340 341 341 339 337 335 335 332 327 322 318 318 318 325 331 335 338 339 339 339 339
290 291 292 292 292 292 295 294 295 296 297 298 300 301 303 305 311 318 320 322 329 332 336 338 339 336 331 334 334 330 328 320 316 316 318 327 332 334 336 340 339 339 338
289 291 292 291 292 291 292 293 293 294 294 296 297 298 300 303 306 312 318 319 322 325 331 334 335 334 332 333 332 331 323 319 317 317 319 325 332 334 335 337 340 338 338
290 290 291 291 291 291 292 292 291 291 293 293 294 297 299 300 302 305 311 316 317 321 331 331 332 333 332 332 331 328 324 320 319 318 316 321 330 334 335 335 338 338 338
288 289 289 290 290 291 291 291 291 291 292 293 294 297 299 298 299 302 306 312 317 317 318 331 332 331 331 331 329 327 324 321 319 319 318 316 324 332 334 335 336 338 338
288 288 289 289 290 291 290 290 291 291 292 292 293 295 297 298 299 300 302 306 312 317 316 316 330 331 331 331 328 326 324 322 319 318 318 317 320 326 333 335 336 336 337
288 288 288 289 290 289 289 290 291 291 292 291 293 295 296 298 298 299 300 302 306 312 315 314 313 331 331 331 329 326 324 322 320 317 316 316 317 320 325 334 337 337 336
287 287 288 289 288 289 289 289 290 290 290 291 293 293 294 296 297 298 299 300 304 308 313 314 314 313 329 329 327 326 324 322 319 318 316 315 314 316 319 326 332 335 336
286 286 286 287 287 287 287 288 288 289 290 291 292 293 293 295 296 298 299 301 303 306 309 315 316 315 316 327 326 325 325 322 319 318 316 315 314 315 315 319 322 325 331
285 285 285 286 286 286 287 287 287 288 289 290 291 292 294 295 296 296 297 300 303 304 306 312 316 319 319 325 326 325 323 322 320 318 317 317 315 315 315 315 318 319 322
285 284 285 285 285 285 285 284 284 285 287 289 291 293 293 294 295 295 296 298 301 302 305 308 308 310 317 324 322 321 319 320 318 318 317 317 315 315 316 316 317 318 320
283 283 284 284 285 285 285 285 285 286 287 289 290 292 293 294 296 296 296 296 298 301 304 305 306 307 316 323 319 314 308 310 313 316 317 316 316 316 314 316 316 316 317
282 282 284 284 284 284 284 285 285 286 287 288 289 291 292 294 296 296 297 297 298 299 302 304 307 308 309 319 322 314 307 307 310 313 314 314 315 314 314 315 315 316 316
282 282 283 283 283 284 284 284 283 284 283 286 288 290 291 293 294 296 297 298 298 300 301 304 308 310 311 313 320 319 314 312 309 305 310 315 315 313 313 314 314 315 315
282 281 282 282 282 283 283 284 283 283 286 287 287 288 290 292 293 294 297 297 297 299 302 304 307 308 311 313 316 317 314 311 311 307 305 308 312 314 314 313 313 313 313
281 280 280 281 281 282 282 282 282 283 285 285 286 287 288 290 291 295 297 298 298 299 301 304 307 308 308 312 316 317 317 313 310 308 306 308 309 311 313 313 312 312 311
Wind_Speed
7 13 21 23 24 24 16 10 4 4 3 2 1 2 3 4 6 8 9 10 11 11 12 12 10 9 12 10 9 10 10 12 10 11 9 9 10 11 9 6 5 4 11
5 9 18 22 23 22 20 21 17 10 4 4 3 2 3 3 5 6 7 9 10 11 13 13 10 9 10 10 10 10 11 9 8 8 8 8 10 10 9 5 5 4 13
6 8 12 22 23 23 22 21 18 21 15 10 7 6 5 5 6 7 7 8 9 11 12 12 12 11 9 9 9 12 12 10 10 9 7 4 5 8 7 6 6 9 13
6 7 11 19 22 23 24 23 21 22 18 18 13 11 8 8 8 9 9 9 10 11 12 12 12 12 12 10 10 12 13 12 10 10 5 4 3 8 8 7 7 9 15
9 8 12 20 22 23 23 24 24 22 22 19 18 16 14 11 10 10 10 10 11 12 12 13 12 12 12 11 11 12 13 12 11 8 6 4 2 6 10 8 7 11 11
8 8 13 20 21 21 22 22 23 23 23 22 20 18 19 14 13 11 11 11 11 12 13 14 14 13 12 12 11 12 13 12 10 6 5 5 3 6 10 8 8 12 10
7 7 7 19 20 21 20 21 22 22 22 21 22 20 19 18 17 15 13 13 13 13 14 13 13 13 14 13 13 14 14 14 8 6 6 4 4 8 11 12 10 12 12
6 7 8 14 19 20 20 22 22 23 22 22 22 22 21 19 19 18 16 15 15 14 14 14 14 14 15 14 14 14 13 11 7 6 7 5 7 7 12 11 13 12 14
6 6 6 7 11 16 17 20 22 22 21 22 21 20 21 22 19 17 16 16 16 17 15 14 14 14 16 16 14 10 11 11 7 5 6 5 9 8 13 12 11 10 11
6 6 6 6 6 7 6 16 21 22 21 20 20 19 20 17 17 15 16 13 17 17 17 15 15 15 17 17 14 12 11 11 6 6 4 4 13 10 9 12 11 9 6
4 5 6 6 6 6 6 8 12 16 20 19 15 17 14 8 11 12 14 18 17 17 18 18 16 16 15 15 15 14 12 4 5 4 3 9 14 15 13 12 11 11 9
4 5 6 6 6 6 7 6 5 7 6 7 8 9 7 9 8 12 10 16 19 14 14 18 17 14 11 7 7 12 6 6 5 5 4 12 15 15 15 13 13 13 12
2 2 5 5 6 6 5 4 2 4 4 4 6 6 7 7 6 6 5 5 8 8 6 8 9 8 7 7 8 8 7 7 5 4 5 12 15 16 15 14 15 16 15
6 6 7 7 7 7 4 4 4 4 5 5 7 7 5 5 6 6 6 7 5 7 8 7 5 8 9 10 10 10 10 8 6 5 6 12 14 17 17 17 17 20 19
5 6 7 7 6 6 5 4 4 5 5 6 6 6 5 6 6 6 6 7 6 6 7 8 8 8 10 11 10 11 11 11 10 6 6 13 13 16 18 19 20 17 21
5 6 6 7 7 6 7 9 7 5 6 6 6 6 8 6 6 6 6 7 7 6 5 7 9 10 11 11 12 12 13 11 10 10 7 8 14 13 16 20 19 18 19
5 7 7 8 7 8 9 8 7 7 8 7 7 7 6 8 8 8 7 7 7 7 9 7 10 13 12 12 15 13 11 12 10 11 9 7 8 13 12 17 18 17 17
7 8 8 9 10 9 8 8 7 8 8 7 8 7 9 9 11 10 8 7 6 7 8 7 8 8 12 12 11 12 11 11 12 11 9 8 7 6 11 14 16 17 17
5 6 8 8 10 11 10 9 9 10 7 7 7 7 10 10 10 9 8 8 7 7 8 9 9 7 7 8 12 10 11 11 12 9 10 10 8 8 6 12 14 14 15
5 6 6 7 10 10 9 8 8 8 7 8 7 6 10 9 10 9 9 9 8 8 9 9 9 7 7 7 11 12 11 10 9 10 12 10 9 9 8 8 7 9 14
5 6 7 9 11 9 9 9 8 8 9 9 8 10 13 10 11 10 8 9 9 9 10 9 9 11 9 9 3 9 6 11 11 9 9 9 9 10 9 9 6 5 6
6 7 8 10 11 10 8 8 9 10 9 10 10 10 14 14 12 11 10 9 11 10 11 11 12 10 10 8 8 3 1 0 3 7 8 7 10 8 9 11 10 9 8
7 8 10 11 12 11 13 9 9 9 9 8 9 9 11 12 12 11 12 10 10 11 11 11 12 13 10 9 14 7 4 3 3 4 9 9 8 6 8 10 11 11 11
7 7 7 10 11 11 12 11 13 12 11 10 10 10 13 15 16 15 14 11 12 10 13 12 11 12 10 11 7 7 0 6 5 4 3 8 9 11 10 7 9 11 11
8 7 8 9 10 11 11 12 11 13 11 10 9 14 15 15 16 17 15 14 14 11 13 14 13 12 10 10 9 5 3 3 4 5 4 5 6 9 10 11 10 9 10
7 7 7 7 11 10 11 13 14 16 14 12 12 12 12 11 12 15 15 14 14 13 14 15 15 14 11 9 9 9 11 7 3 4 3 6 11 9 11 9 10 9 7
Wind_Direction
341 341 5 20 19 17 15 342 284 176 191 166 134 111 108 135 151 160 166 166 165 164 160 155 152 152 163 158 149 150 137 138 149 137 132 130 132 138 138 132 129 154 160
312 342 8 20 28 24 19 26 10 315 221 216 221 208 196 171 174 169 170 178 174 174 171 155 157 147 155 162 148 143 141 135 128 126 131 136 140 140 152 159 151 189 140
7 358 15 25 28 31 25 23 14 20 350 300 253 226 230 204 198 195 191 192 190 187 175 165 166 158 153 148 154 153 150 141 134 131 123 114 137 151 164 163 185 170 133
27 15 23 28 30 27 27 25 21 17 5 6 318 281 238 217 217 210 205 205 207 202 193 184 183 179 173 167 173 167 158 147 141 131 122 133 162 178 172 179 192 158 137
30 16 28 30 29 28 27 25 22 14 8 3 359 346 286 260 224 223 216 209 212 213 205 199 197 188 182 182 186 174 158 153 149 136 145 147 195 210 185 190 183 148 133
25 16 19 27 27 25 23 22 18 13 8 2 356 351 353 297 267 242 232 216 223 225 223 211 199 189 189 188 184 170 162 155 141 153 151 172 197 218 180 182 159 146 143
28 19 25 30 25 24 24 21 15 9 4 2 356 353 348 341 332 269 243 233 227 229 231 230 214 192 186 195 192 182 175 165 154 162 165 175 210 218 182 163 149 158 153
43 22 22 25 28 25 23 21 15 9 3 358 354 349 348 339 335 320 274 243 238 234 234 230 226 199 190 197 200 195 184 160 155 167 168 180 217 227 178 168 150 167 167
40 41 27 21 21 22 18 14 8 4 0 354 352 346 342 335 328 329 313 279 246 236 234 230 229 214 199 199 196 191 166 162 162 170 172 181 218 237 194 151 147 160 180
24 29 22 21 23 10 3 7 360 355 351 348 344 343 340 330 326 329 321 290 273 245 235 228 221 221 211 202 192 182 172 167 172 174 190 195 202 213 198 155 151 158 163
7 17 14 10 12 12 352 357 352 347 344 341 340 336 337 331 323 317 321 318 284 265 240 233 222 221 219 204 190 185 166 176 177 190 186 205 203 207 214 189 170 172 169
354 349 8 3 2 354 346 345 337 334 325 324 326 326 325 318 315 310 296 316 290 265 259 239 226 216 210 199 194 183 180 171 173 192 194 202 203 212 220 210 192 186 185
242 5 354 349 342 341 333 334 319 332 313 308 308 310 313 313 308 308 306 294 314 266 251 251 234 218 193 185 186 188 175 173 181 188 201 205 205 208 219 227 210 203 200
354 342 343 344 336 329 321 322 316 313 310 306 304 303 303 306 303 300 304 300 294 310 264 236 225 204 191 190 189 187 187 182 183 193 196 201 207 209 214 224 229 213 209
332 320 321 317 312 312 305 293 297 298 299 296 291 286 286 292 291 293 291 294 286 284 298 248 225 208 198 192 189 189 195 192 190 188 194 197 206 208 214 224 229 224 207
320 319 307 318 311 311 317 312 308 296 294 292 290 278 282 281 281 283 282 283 287 274 275 291 253 212 204 196 196 196 198 198 192 190 193 202 203 208 213 222 233 226 219
330 320 320 315 325 316 304 301 305 295 299 294 286 277 276 284 279 276 275 275 276 281 272 262 261 243 207 197 201 197 197 198 195 191 192 195 207 212 212 217 228 236 236
322 318 313 317 319 313 301 297 298 296 289 288 283 283 280 279 281 278 273 268 266 270 273 273 262 259 230 203 200 194 197 196 200 195 191 191 191 202 218 222 221 229 234
300 298 300 316 314 312 307 300 296 289 283 284 278 278 281 276 273 274 273 272 265 262 262 260 260 255 287 213 201 203 203 199 194 189 193 196 189 191 202 217 218 220 232
298 293 296 310 306 311 309 305 302 295 291 285 273 273 282 278 276 272 276 274 269 262 257 255 263 263 230 244 219 196 205 195 192 198 195 194 195 198 199 204 210 222 220
300 316 310 307 318 320 312 311 305 299 296 289 282 280 287 276 271 266 265 270 267 258 256 250 253 263 257 223 239 190 176 190 186 198 196 193 194 199 199 201 204 205 210
306 303 302 318 316 308 302 296 290 289 282 281 281 276 282 280 264 259 255 259 260 266 254 248 244 247 255 236 208 96 189 263 122 199 190 182 212 199 200 206 205 203 203
304 304 320 310 302 298 296 296 290 288 277 282 288 290 284 280 283 267 259 252 254 255 255 248 239 233 241 231 215 153 157 170 158 162 199 188 185 211 212 210 205 206 203
293 284 291 290 294 296 300 293 287 280 291 285 285 285 286 282 280 276 262 255 258 250 251 246 241 237 229 244 217 204 168 130 158 182 209 204 192 198 209 214 219 213 203
279 281 274 272 285 291 290 289 287 281 278 285 283 280 278 280 278 276 261 257 250 247 248 243 238 233 232 238 245 167 206 129 237 143 157 173 181 219 207 210 209 216 204
276 271 265 284 293 292 288 286 284 277 288 286 280 282 280 282 283 273 269 254 242 240 243 247 233 228 230 242 236 245 209 190 200 164 134 174 202 211 206 203 209 205 201